Location: Unspecified
(41.2610°N, 0.0000°E)
Time: 04:29:50
(UTC+00:00)

OBJECT A - Visible Passes

Search period start: 04 April 2026 00:00
Search period end: 14 April 2026 00:00
Orbit: 866 x 891 km, 86.0° (Epoch: 29 March)

Date Brightness Start Highest point End Pass type
(mag) Time Alt. Az. Time Alt. Az. Time Alt. Az.
4 Apr ? 01:43:51 10° NNE 01:48:17 31° ENE 01:48:17 31° ENE visible
4 Apr ? 03:26:43 10° NNW 03:30:53 31° WNW 03:30:53 31° WNW visible
5 Apr ? 01:40:12 10° NNE 01:44:31 32° ENE 01:44:31 32° ENE visible
5 Apr ? 03:23:11 10° NNW 03:27:07 30° WNW 03:27:07 30° WNW visible
6 Apr ? 01:36:34 10° NNE 01:40:47 33° ENE 01:40:47 33° ENE visible
6 Apr ? 03:19:37 10° NNW 03:23:22 28° WNW 03:23:22 28° WNW visible
7 Apr ? 01:32:57 10° NNE 01:37:03 33° NE 01:37:03 33° NE visible
7 Apr ? 03:16:05 10° NNW 03:19:39 27° WNW 03:19:39 27° WNW visible
8 Apr ? 01:29:18 10° NNE 01:33:20 33° NE 01:33:20 33° NE visible
8 Apr ? 03:12:32 10° NNW 03:15:56 25° WNW 03:15:56 25° WNW visible
9 Apr ? 01:25:41 10° NNE 01:29:38 34° NE 01:29:38 34° NE visible
9 Apr ? 03:08:59 10° NNW 03:12:14 24° WNW 03:12:14 24° WNW visible
10 Apr ? 01:22:03 10° N 01:25:57 34° NE 01:25:57 34° NE visible
10 Apr ? 03:05:27 10° NNW 03:08:33 23° WNW 03:08:33 23° WNW visible
11 Apr ? 01:18:25 10° N 01:22:16 35° NE 01:22:16 35° NE visible
11 Apr ? 03:01:54 10° NNW 03:04:52 22° NW 03:04:52 22° NW visible
12 Apr ? 01:14:48 10° N 01:18:37 35° NE 01:18:37 35° NE visible
12 Apr ? 02:58:22 10° NNW 03:01:12 21° NW 03:01:12 21° NW visible
13 Apr ? 01:11:10 10° N 01:14:57 36° NE 01:14:57 36° NE visible
13 Apr ? 02:54:50 10° NNW 02:57:32 20° NW 02:57:32 20° NW visible
